Weather History for Rhinelander, WI

Change the Weather History Date:

Sunday, August 25, 2013

  Actual Average Record
Temperature  
Mean Temperature 81 °F 64 °F  
Max Temperature 92 °F 75 °F 92 °F (2013)
Min Temperature 70 °F 52 °F 34 °F (2008)
Degree Days  
Heating Degree Days 0 3  
Month to date heating degree days 106 53  
Since 1 June heating degree days 364 238  
Since 1 July heating degree days 190 104  
Cooling Degree Days 16 2  
Month to date cooling degree days 43 66  
Year to date cooling degree days 229 236  
Since 1 June cooling degree days 215 224  
Growing Degree Days 30 (Base 50)    
Moisture  
Dew Point 68 °F    
Average Humidity 69    
Maximum Humidity 90    
Minimum Humidity 47    
Precipitation  
Precipitation 0.00 in 0.10 in 1.32 in (1932)
Month to date precipitation 1.40 2.63  
Year to date precipitation 22.77 20.22  
Snow  
Snow 0.00 in - 0.00 in ()
Month to date snowfall 0.0  
Since 1 June snowfall 0.0  
Since 1 July snowfall 0.0  
Snow Depth 0.00 in    
Sea Level Pressure  
Sea Level Pressure 30.03 in    
Wind  
Wind Speed 13 mph (SW)    
Max Wind Speed 20 mph    
Max Gust Speed 26 mph    
Visibility 10 miles    
Events      
T = Trace of Precipitation, MM = Missing Value Source: NWS Daily Summary

Daily Weather History Graph

Daily Weather History Graph

Search for Another Location

Airport:

Trip Planner

Search our weather history database for the weather conditions in past years. The results will help you decide how hot, cold, wet, or windy it might be!

Date:

Astronomy

Aug. 25, 2013 Rise Set
Actual Time 6:10 AM CDT 7:48 PM CDT
Civil Twilight 5:39 AM CDT 8:19 PM CDT
Nautical Twilight 5:01 AM CDT 8:57 PM CDT
Astronomical Twilight 4:20 AM CDT 9:37 PM CDT
Moon 9:59 PM CDT 11:31 AM CDT
Length of Visible Light 14h 39m
Length of Day
13h 37m
Waning Gibbous, 75% of the Moon is Illuminated
Aug 25
Waning Gibbous
Aug 28
Last Quarter
Sep 5
New
Sep 12
First Quarter
Sep 19
Full

Hourly Weather History & Observations

Time (CDT) Temp. Heat Index Dew Point Humidity Pressure Visibility Wind Dir Wind Speed Gust Speed Precip Events Conditions
12:53 AM 72.0 °F - 64.0 °F 76% 30.07 in 10.0 mi SSW 12.7 mph 19.6 mph N/A   Partly Cloudy
1:53 AM 72.0 °F - 64.9 °F 78% 30.06 in 10.0 mi SSW 16.1 mph 24.2 mph N/A   Clear
2:53 AM 72.0 °F - 64.9 °F 78% 30.07 in 10.0 mi SW 9.2 mph 21.9 mph N/A   Partly Cloudy
3:53 AM 71.1 °F - 66.0 °F 84% 30.08 in 10.0 mi SW 12.7 mph 19.6 mph N/A   Partly Cloudy
4:53 AM 71.1 °F - 66.0 °F 84% 30.09 in 10.0 mi SW 10.4 mph 19.6 mph N/A   Clear
5:53 AM 70.0 °F - 66.0 °F 87% 30.08 in 10.0 mi SW 12.7 mph - N/A   Clear
6:53 AM 70.0 °F - 66.0 °F 87% 30.08 in 8.0 mi SW 13.8 mph 21.9 mph N/A   Clear
7:53 AM 73.0 °F - 66.9 °F 81% 30.09 in 9.0 mi SW 12.7 mph 20.7 mph N/A   Clear
8:53 AM 75.9 °F - 66.9 °F 74% 30.06 in 10.0 mi SW 16.1 mph 25.3 mph N/A   Clear
9:53 AM 80.1 °F 82.7 °F 68.0 °F 67% 30.05 in 10.0 mi SW 11.5 mph 20.7 mph N/A   Clear
10:53 AM 82.9 °F 86.5 °F 69.1 °F 63% 30.05 in 10.0 mi SW 12.7 mph 23.0 mph N/A   Clear
11:53 AM 86.0 °F 89.4 °F 68.0 °F 55% 30.04 in 10.0 mi WSW 17.3 mph 21.9 mph N/A   Clear
12:53 PM 88.0 °F 92.1 °F 69.1 °F 53% 30.02 in 10.0 mi WSW 12.7 mph 20.7 mph N/A   Clear
1:53 PM 90.0 °F 94.5 °F 69.1 °F 50% 30.01 in 10.0 mi SW 16.1 mph 23.0 mph N/A   Clear
2:53 PM 91.0 °F 95.2 °F 68.0 °F 47% 29.99 in 10.0 mi WSW 15.0 mph 23.0 mph N/A   Clear
3:53 PM 91.9 °F 96.9 °F 69.1 °F 47% 29.99 in 10.0 mi SW 13.8 mph 19.6 mph N/A   Clear
4:53 PM 91.0 °F 95.6 °F 69.1 °F 48% 29.98 in 10.0 mi SW 11.5 mph - N/A   Clear
5:53 PM 89.1 °F 92.9 °F 68.0 °F 50% 29.99 in 10.0 mi WSW 11.5 mph 25.3 mph N/A   Clear
6:53 PM 86.0 °F 90.1 °F 69.1 °F 57% 30.00 in 10.0 mi SW 8.1 mph - N/A   Clear
7:53 PM 84.0 °F 88.4 °F 70.0 °F 63% 30.00 in 10.0 mi SW 8.1 mph - N/A   Clear
8:53 PM 82.0 °F 85.9 °F 70.0 °F 67% 30.01 in 10.0 mi SW 12.7 mph 18.4 mph N/A   Clear
9:53 PM 80.1 °F 83.2 °F 70.0 °F 71% 30.03 in 10.0 mi SW 12.7 mph - N/A   Clear
10:53 PM 79.0 °F - 70.0 °F 74% 30.01 in 10.0 mi SW 12.7 mph - N/A   Clear
11:53 PM 77.0 °F - 70.0 °F 79% 29.99 in 10.0 mi WSW 10.4 mph - N/A   Clear